TimeCDT,TemperatureF,Dew PointF,Humidity,Sea Level PressureIn,VisibilityMPH,Wind Direction,Wind SpeedMPH,Gust SpeedMPH,PrecipitationIn,Events,Conditions,WindDirDegrees,DateUTC
12:08 AM,44.1,29.1,56,-9999,-9999.0,ENE,6.9,-,N/A,,Unknown,70,2012-10-05 05:08:00
12:28 AM,44.1,29.1,56,-9999,-9999.0,ENE,6.9,-,N/A,,Unknown,70,2012-10-05 05:28:00
12:48 AM,43.0,29.1,58,-9999,-9999.0,East,8.1,-,N/A,,Unknown,80,2012-10-05 05:48:00
1:08 AM,44.1,28.0,53,-9999,-9999.0,East,9.2,-,N/A,,Unknown,80,2012-10-05 06:08:00
1:28 AM,43.0,29.1,58,-9999,-9999.0,East,6.9,-,N/A,,Unknown,80,2012-10-05 06:28:00
1:48 AM,42.1,30.0,62,-9999,-9999.0,East,5.8,-,N/A,,Unknown,80,2012-10-05 06:48:00
2:08 AM,42.1,29.1,60,-9999,-9999.0,East,5.8,-,N/A,,Unknown,80,2012-10-05 07:08:00
2:28 AM,42.1,29.1,60,-9999,-9999.0,East,5.8,-,N/A,,Unknown,90,2012-10-05 07:28:00
2:48 AM,44.1,29.1,56,-9999,-9999.0,East,6.9,-,N/A,,Unknown,80,2012-10-05 07:48:00
3:08 AM,44.1,29.1,56,-9999,-9999.0,East,8.1,-,N/A,,Unknown,90,2012-10-05 08:08:00
3:28 AM,44.1,29.1,56,-9999,-9999.0,East,8.1,-,N/A,,Unknown,90,2012-10-05 08:28:00
3:48 AM,44.1,31.1,60,-9999,-9999.0,ENE,5.8,-,N/A,,Unknown,70,2012-10-05 08:48:00
4:08 AM,43.0,30.0,60,-9999,-9999.0,ENE,5.8,-,N/A,,Unknown,70,2012-10-05 09:08:00
4:28 AM,43.0,30.0,60,-9999,-9999.0,East,6.9,-,N/A,,Unknown,80,2012-10-05 09:28:00
4:48 AM,43.0,31.1,63,-9999,-9999.0,ENE,6.9,-,N/A,,Unknown,60,2012-10-05 09:48:00
5:08 AM,42.1,30.0,62,-9999,-9999.0,ENE,5.8,-,N/A,,Unknown,70,2012-10-05 10:08:00
5:28 AM,41.0,30.0,65,-9999,-9999.0,ENE,5.8,-,N/A,,Unknown,70,2012-10-05 10:28:00
5:48 AM,39.9,30.0,68,-9999,-9999.0,ENE,4.6,-,N/A,,Unknown,70,2012-10-05 10:48:00
6:08 AM,39.0,30.0,70,-9999,-9999.0,East,5.8,-,N/A,,Unknown,80,2012-10-05 11:08:00
6:28 AM,39.0,29.1,68,-9999,-9999.0,East,6.9,-,N/A,,Unknown,90,2012-10-05 11:28:00
6:48 AM,39.0,30.0,70,-9999,-9999.0,East,6.9,-,N/A,,Unknown,90,2012-10-05 11:48:00
7:08 AM,39.0,30.0,70,-9999,-9999.0,East,6.9,-,N/A,,Unknown,100,2012-10-05 12:08:00
7:28 AM,39.0,29.1,68,-9999,-9999.0,East,6.9,-,N/A,,Unknown,90,2012-10-05 12:28:00
7:48 AM,39.0,29.1,68,-9999,-9999.0,East,8.1,-,N/A,,Unknown,90,2012-10-05 12:48:00
8:08 AM,39.0,30.0,70,-9999,-9999.0,East,8.1,-,N/A,,Unknown,80,2012-10-05 13:08:00
8:28 AM,41.0,30.0,65,-9999,-9999.0,East,10.4,-,N/A,,Unknown,90,2012-10-05 13:28:00
8:48 AM,42.1,30.0,62,-9999,-9999.0,East,10.4,-,N/A,,Unknown,90,2012-10-05 13:48:00
9:08 AM,43.0,31.1,63,-9999,-9999.0,East,11.5,-,N/A,,Unknown,100,2012-10-05 14:08:00
9:28 AM,44.1,28.0,53,-9999,-9999.0,East,15.0,-,N/A,,Unknown,90,2012-10-05 14:28:00
9:48 AM,44.1,29.1,56,-9999,-9999.0,East,13.8,-,N/A,,Unknown,90,2012-10-05 14:48:00
10:08 AM,45.0,29.1,54,-9999,-9999.0,East,12.7,-,N/A,,Unknown,80,2012-10-05 15:08:00
10:28 AM,45.0,30.0,56,-9999,-9999.0,East,11.5,-,N/A,,Unknown,80,2012-10-05 15:28:00
10:48 AM,45.0,29.1,54,-9999,-9999.0,East,13.8,-,N/A,,Unknown,80,2012-10-05 15:48:00
11:08 AM,45.0,31.1,58,-9999,-9999.0,East,12.7,-,N/A,,Unknown,80,2012-10-05 16:08:00
11:28 AM,46.0,30.0,54,-9999,-9999.0,East,10.4,-,N/A,,Unknown,80,2012-10-05 16:28:00
11:48 AM,46.0,31.1,56,-9999,-9999.0,East,9.2,-,N/A,,Unknown,80,2012-10-05 16:48:00
12:08 PM,46.9,30.0,52,-9999,-9999.0,East,12.7,-,N/A,,Unknown,90,2012-10-05 17:08:00
12:28 PM,48.0,31.1,52,-9999,-9999.0,East,10.4,-,N/A,,Unknown,90,2012-10-05 17:28:00
12:48 PM,48.0,30.0,50,-9999,-9999.0,East,17.3,-,N/A,,Unknown,90,2012-10-05 17:48:00
1:08 PM,48.9,31.1,50,-9999,-9999.0,East,11.5,-,N/A,,Unknown,100,2012-10-05 18:08:00
1:28 PM,48.9,30.0,48,-9999,-9999.0,East,12.7,-,N/A,,Unknown,90,2012-10-05 18:28:00
1:48 PM,50.0,30.0,46,-9999,-9999.0,East,13.8,-,N/A,,Unknown,80,2012-10-05 18:48:00
2:08 PM,50.0,31.1,48,-9999,-9999.0,East,11.5,-,N/A,,Unknown,100,2012-10-05 19:08:00
2:28 PM,50.0,31.1,48,-9999,-9999.0,East,11.5,-,N/A,,Unknown,80,2012-10-05 19:28:00
2:48 PM,50.0,30.0,46,-9999,-9999.0,East,12.7,-,N/A,,Unknown,90,2012-10-05 19:48:00
3:08 PM,51.1,30.0,44,-9999,-9999.0,East,11.5,-,N/A,,Unknown,80,2012-10-05 20:08:00
3:28 PM,51.1,30.0,44,-9999,-9999.0,East,11.5,-,N/A,,Unknown,90,2012-10-05 20:28:00
3:48 PM,51.1,30.0,44,-9999,-9999.0,East,11.5,-,N/A,,Unknown,80,2012-10-05 20:48:00
4:08 PM,51.1,31.1,46,-9999,-9999.0,ENE,10.4,-,N/A,,Unknown,70,2012-10-05 21:08:00
4:28 PM,51.1,29.1,43,-9999,-9999.0,East,11.5,-,N/A,,Unknown,80,2012-10-05 21:28:00
4:48 PM,50.0,29.1,45,-9999,-9999.0,East,15.0,-,N/A,,Unknown,80,2012-10-05 21:48:00
5:08 PM,50.0,29.1,45,-9999,-9999.0,East,10.4,-,N/A,,Unknown,80,2012-10-05 22:08:00
5:28 PM,50.0,29.1,45,-9999,-9999.0,East,11.5,-,N/A,,Unknown,80,2012-10-05 22:28:00
5:49 PM,50.0,29.1,45,-9999,-9999.0,East,10.4,-,N/A,,Unknown,80,2012-10-05 22:49:00
6:08 PM,48.9,28.0,44,-9999,-9999.0,East,11.5,-,N/A,,Unknown,80,2012-10-05 23:08:00
6:28 PM,48.9,29.1,46,-9999,-9999.0,ENE,12.7,-,N/A,,Unknown,60,2012-10-05 23:28:00
6:49 PM,48.0,28.0,46,-9999,-9999.0,ENE,15.0,-,N/A,,Unknown,60,2012-10-05 23:49:00
7:08 PM,48.0,26.1,42,-9999,-9999.0,ENE,16.1,-,N/A,,Unknown,70,2012-10-06 00:08:00
7:28 PM,46.9,27.1,46,-9999,-9999.0,ENE,13.8,-,N/A,,Unknown,60,2012-10-06 00:28:00
7:48 PM,46.0,27.1,48,-9999,-9999.0,ENE,15.0,-,N/A,,Unknown,60,2012-10-06 00:48:00
8:08 PM,46.0,27.1,48,-9999,-9999.0,NE,13.8,-,N/A,,Unknown,50,2012-10-06 01:08:00
8:28 PM,45.0,25.2,46,-9999,-9999.0,ENE,15.0,-,N/A,,Unknown,60,2012-10-06 01:28:00
8:48 PM,45.0,25.2,46,-9999,-9999.0,ENE,13.8,-,N/A,,Unknown,60,2012-10-06 01:48:00
9:08 PM,43.0,27.1,54,-9999,-9999.0,NE,15.0,-,N/A,,Unknown,50,2012-10-06 02:08:00
9:28 PM,43.0,26.1,51,-9999,-9999.0,NE,15.0,-,N/A,,Unknown,50,2012-10-06 02:28:00
9:48 PM,42.1,28.0,58,-9999,-9999.0,NE,11.5,-,N/A,,Unknown,50,2012-10-06 02:48:00
10:08 PM,42.1,27.1,55,-9999,-9999.0,NE,13.8,-,N/A,,Unknown,50,2012-10-06 03:08:00
10:28 PM,42.1,28.0,58,-9999,-9999.0,ENE,10.4,-,N/A,,Unknown,60,2012-10-06 03:28:00
10:48 PM,41.0,27.1,58,-9999,-9999.0,ENE,13.8,-,N/A,,Unknown,60,2012-10-06 03:48:00
11:08 PM,41.0,27.1,58,-9999,-9999.0,NE,13.8,-,N/A,,Unknown,50,2012-10-06 04:08:00
11:28 PM,39.9,28.0,63,-9999,-9999.0,ENE,10.4,-,N/A,,Unknown,60,2012-10-06 04:28:00
11:48 PM,39.9,27.1,60,-9999,-9999.0,ENE,10.4,-,N/A,,Unknown,60,2012-10-06 04:48:00